Weather History for KBJC - October, 2013

Change the Weather History Date:

Sunday, October 13, 2013

  Actual Average Record
Temperature  
Mean Temperature 48 °F -  
Max Temperature 59 °F 65 °F 84 °F (1992)
Min Temperature 37 °F 40 °F 31 °F (1985)
Degree Days  
Heating Degree Days 17    
Moisture  
Dew Point 37 °F    
Average Humidity 71    
Maximum Humidity 87    
Minimum Humidity 48    
Precipitation  
Precipitation 0.00 in - - ()
Sea Level Pressure  
Sea Level Pressure 30.10 in    
Wind  
Wind Speed 4 mph (NNW)    
Max Wind Speed 10 mph    
Max Gust Speed -    
Visibility 13 miles    
Events      
Averages and records for this station are not official NWS values.
T = Trace of Precipitation, MM = Missing Value Source: NWS Daily Summary

Daily Weather History Graph

Daily Weather History Graph

Search for Another Location

Airport or City:

Trip Planner

Search our weather history database for the weather conditions in past years. The results will help you decide how hot, cold, wet, or windy it might be!

Date:

Astronomy

Oct. 13, 2013 Rise Set
Actual Time 7:09 AM MDT 6:23 PM MDT
Civil Twilight 6:41 AM MDT 6:50 PM MDT
Nautical Twilight 6:10 AM MDT 7:21 PM MDT
Astronomical Twilight 5:39 AM MDT 7:53 PM MDT
Moon 3:16 PM MDT (10/13) 1:22 AM MDT (10/13)
Length of Visible Light 12h 08m
Length of Day
11h 14m
Waxing Gibbous, 70% of the Moon is Illuminated
Oct 13
Waxing Gibbous
Oct 18
Full
Oct 26
Last Quarter
Nov 3
New
Nov 9
First Quarter

Hourly Weather History & Observations

Time (MDT) Temp. Windchill Dew Point Humidity Pressure Visibility Wind Dir Wind Speed Gust Speed Precip Events Conditions
12:14 AM 44.6 °F - 35.6 °F 71% 30.15 in 10.0 mi Calm Calm - N/A   Clear
12:35 AM 44.6 °F - 35.6 °F 71% 30.15 in 10.0 mi Calm Calm - N/A   Clear
12:55 AM 46.4 °F - 35.6 °F 66% 30.15 in 10.0 mi Calm Calm - N/A   Clear
1:15 AM 44.6 °F 43.1 °F 35.6 °F 71% 30.15 in 10.0 mi North 3.5 mph - N/A   Clear
1:35 AM 44.6 °F 42.2 °F 35.6 °F 71% 30.15 in 10.0 mi NNW 4.6 mph - N/A   Clear
1:55 AM 44.6 °F 43.1 °F 35.6 °F 71% 30.15 in 10.0 mi NNW 3.5 mph - N/A   Clear
2:15 AM 42.8 °F - 35.6 °F 76% 30.16 in 10.0 mi Calm Calm - N/A   Clear
2:35 AM 41.0 °F 36.4 °F 33.8 °F 76% 30.16 in 10.0 mi North 6.9 mph - N/A   Clear
2:54 AM 41.0 °F 37.1 °F 35.6 °F 81% 30.16 in 10.0 mi NNW 5.8 mph - N/A   Clear
3:15 AM 41.0 °F 35.8 °F 33.8 °F 76% 30.15 in 10.0 mi NNW 8.1 mph - N/A   Clear
3:35 AM 41.0 °F 35.2 °F 35.6 °F 81% 30.16 in 10.0 mi NNW 9.2 mph - N/A   Clear
3:55 AM 41.0 °F 34.7 °F 35.6 °F 81% 30.16 in 10.0 mi NNW 10.4 mph - N/A   Clear
4:15 AM 41.0 °F 35.2 °F 35.6 °F 81% 30.15 in 10.0 mi NNW 9.2 mph - N/A   Clear
4:35 AM 41.0 °F 39.0 °F 33.8 °F 76% 30.16 in 10.0 mi NW 3.5 mph - N/A   Clear
4:55 AM 37.4 °F 32.1 °F 33.8 °F 87% 30.16 in 10.0 mi WNW 6.9 mph - N/A   Clear
5:15 AM 37.4 °F 30.8 °F 33.8 °F 87% 30.15 in 10.0 mi NW 9.2 mph - N/A   Clear
5:35 AM 39.2 °F 35.0 °F 33.8 °F 81% 30.15 in 10.0 mi NNW 5.8 mph - N/A   Clear
5:47 AM 39.2 °F 35.0 °F 35.6 °F 87% 30.15 in 15.0 mi NW 5.8 mph - N/A   Scattered Clouds
5:55 AM 39.2 °F 35.0 °F 33.8 °F 81% 30.15 in 10.0 mi NW 5.8 mph - N/A   Clear
6:53 AM 39.2 °F - 33.8 °F 81% 30.16 in 15.0 mi Calm Calm - N/A   Scattered Clouds
7:54 AM 39.2 °F - 35.6 °F 87% 30.16 in 20.0 mi Calm Calm - N/A   Scattered Clouds
8:47 AM 41.0 °F - 35.6 °F 81% 30.16 in 20.0 mi Calm Calm - N/A   Scattered Clouds
9:47 AM 46.4 °F - 37.4 °F 71% 30.16 in 20.0 mi Calm Calm - N/A   Scattered Clouds
10:47 AM 50.0 °F - 37.4 °F 62% 30.15 in 20.0 mi Variable 3.5 mph - N/A   Haze
11:57 AM 53.6 °F - 37.4 °F 54% 30.13 in 20.0 mi Variable 3.5 mph - N/A   Scattered Clouds
12:46 PM 55.4 °F - 39.2 °F 54% 30.10 in 20.0 mi North 5.8 mph - N/A   Scattered Clouds
1:47 PM 57.2 °F - 39.2 °F 51% 30.06 in 15.0 mi North 5.8 mph - N/A   Scattered Clouds
2:47 PM 57.2 °F - 39.2 °F 51% 30.03 in 13.0 mi Variable 3.5 mph - N/A   Scattered Clouds
3:45 PM 59.0 °F - 39.2 °F 48% 30.02 in 15.0 mi NNW 4.6 mph - N/A   Haze
4:52 PM 59.0 °F - 39.2 °F 48% 29.99 in 15.0 mi NNW 6.9 mph - N/A   Haze
5:47 PM 57.2 °F - 39.2 °F 51% 29.99 in 15.0 mi NW 8.1 mph - N/A   Scattered Clouds
6:47 PM 53.6 °F - 41.0 °F 62% 30.00 in 15.0 mi North 5.8 mph - N/A   Scattered Clouds
7:46 PM 53.6 °F - 39.2 °F 58% 29.98 in 20.0 mi NNW 9.2 mph - N/A   Scattered Clouds
8:50 PM 50.0 °F - 46.4 °F 87% 29.98 in 20.0 mi Variable 3.5 mph - N/A   Overcast
9:46 PM 46.4 °F 42.4 °F 41.0 °F 81% 29.95 in 15.0 mi West 8.1 mph - N/A   Mostly Cloudy
11:15 PM 51.8 °F - 37.4 °F 58% 29.94 in 10.0 mi Calm Calm - N/A   Clear
11:35 PM 51.8 °F - 37.4 °F 58% 29.92 in 10.0 mi Calm Calm - N/A   Clear
11:55 PM 48.2 °F - 37.4 °F 66% 29.91 in 10.0 mi Calm Calm - N/A   Clear